Year,Month,Day,Hour,Minute,Value (Times are PST for windspeed in km/hr)
2010,05,02,00,00,74.50
2010,05,02,00,01,74.50
2010,05,02,00,02,74.50
2010,05,02,00,03,74.50
2010,05,02,00,04,74.50
2010,05,02,00,05,74.50
2010,05,02,00,06,74.50
2010,05,02,00,07,74.50
2010,05,02,00,08,74.50
2010,05,02,00,09,74.50
2010,05,02,00,10,74.50
2010,05,02,00,11,74.50
2010,05,02,00,12,74.50
2010,05,02,00,13,74.50
2010,05,02,00,14,74.50
2010,05,02,00,15,77.40
2010,05,02,00,16,77.40
2010,05,02,00,17,77.40
2010,05,02,00,18,77.40
2010,05,02,00,19,77.40
2010,05,02,00,20,77.40
2010,05,02,00,21,77.40
2010,05,02,00,22,77.40
2010,05,02,00,23,77.40
2010,05,02,00,24,77.40
2010,05,02,00,25,77.40
2010,05,02,00,26,77.40
2010,05,02,00,27,77.40
2010,05,02,00,28,77.40
2010,05,02,00,29,77.40
2010,05,02,00,30,71.50
2010,05,02,00,31,71.50
2010,05,02,00,32,71.50
2010,05,02,00,33,71.50
2010,05,02,00,34,71.50
2010,05,02,00,35,71.50
2010,05,02,00,36,71.50
2010,05,02,00,37,71.50
2010,05,02,00,38,71.50
2010,05,02,00,39,71.50
2010,05,02,00,40,71.50
2010,05,02,00,41,71.50
2010,05,02,00,42,71.50
2010,05,02,00,43,71.50
2010,05,02,00,44,71.50
2010,05,02,00,45,47.60
2010,05,02,00,46,47.60
2010,05,02,00,47,47.60
2010,05,02,00,48,47.60
2010,05,02,00,49,47.60
2010,05,02,00,50,47.60
2010,05,02,00,51,47.60
2010,05,02,00,52,47.60
2010,05,02,00,53,47.60
2010,05,02,00,54,47.60
2010,05,02,00,55,47.60
2010,05,02,00,56,47.60
2010,05,02,00,57,47.60
2010,05,02,00,58,47.60
2010,05,02,00,59,47.60
2010,05,02,01,00,74.50
2010,05,02,01,01,74.50
2010,05,02,01,02,74.50
2010,05,02,01,03,74.50
2010,05,02,01,04,74.50
2010,05,02,01,05,74.50
2010,05,02,01,06,74.50
2010,05,02,01,07,74.50
2010,05,02,01,08,74.50
2010,05,02,01,09,74.50
2010,05,02,01,10,74.50
2010,05,02,01,11,74.50
2010,05,02,01,12,74.50
2010,05,02,01,13,74.50
2010,05,02,01,14,74.50
2010,05,02,01,15,56.70
2010,05,02,01,16,56.70
2010,05,02,01,17,56.70
2010,05,02,01,18,56.70
2010,05,02,01,19,56.70
2010,05,02,01,20,56.70
2010,05,02,01,21,56.70
2010,05,02,01,22,56.70
2010,05,02,01,23,56.70
2010,05,02,01,24,56.70
2010,05,02,01,25,56.70
2010,05,02,01,26,56.70
2010,05,02,01,27,56.70
2010,05,02,01,28,56.70
2010,05,02,01,29,56.70
2010,05,02,01,30,74.50
2010,05,02,01,31,74.50
2010,05,02,01,32,74.50
2010,05,02,01,33,74.50
2010,05,02,01,34,74.50
2010,05,02,01,35,74.50
2010,05,02,01,36,74.50
2010,05,02,01,37,74.50
2010,05,02,01,38,74.50
2010,05,02,01,39,74.50
2010,05,02,01,40,74.50
2010,05,02,01,41,74.50
2010,05,02,01,42,74.50
2010,05,02,01,43,74.50
2010,05,02,01,44,74.50
2010,05,02,01,45,44.60
2010,05,02,01,46,44.60
2010,05,02,01,47,44.60
2010,05,02,01,48,44.60
2010,05,02,01,49,44.60
2010,05,02,01,50,44.60
2010,05,02,01,51,44.60
2010,05,02,01,52,44.60
2010,05,02,01,53,44.60
2010,05,02,01,54,44.60
2010,05,02,01,55,44.60
2010,05,02,01,56,44.60
2010,05,02,01,57,44.60
2010,05,02,01,58,44.60
2010,05,02,01,59,44.60
2010,05,02,02,00,62.60
2010,05,02,02,01,62.60
2010,05,02,02,02,62.60
2010,05,02,02,03,62.60
2010,05,02,02,04,62.60
2010,05,02,02,05,62.60
2010,05,02,02,06,62.60
2010,05,02,02,07,62.60
2010,05,02,02,08,62.60
2010,05,02,02,09,62.60
2010,05,02,02,10,62.60
2010,05,02,02,11,62.60
2010,05,02,02,12,62.60
2010,05,02,02,13,62.60
2010,05,02,02,14,62.60
2010,05,02,02,15,68.50
2010,05,02,02,16,68.50
2010,05,02,02,17,68.50
2010,05,02,02,18,68.50
2010,05,02,02,19,68.50
2010,05,02,02,20,68.50
2010,05,02,02,21,68.50
2010,05,02,02,22,68.50
2010,05,02,02,23,68.50
2010,05,02,02,24,68.50
2010,05,02,02,25,68.50
2010,05,02,02,26,68.50
2010,05,02,02,27,68.50
2010,05,02,02,28,68.50
2010,05,02,02,29,68.50
2010,05,02,02,30,65.60
2010,05,02,02,31,65.60
2010,05,02,02,32,65.60
2010,05,02,02,33,65.60
2010,05,02,02,34,65.60
2010,05,02,02,35,65.60
2010,05,02,02,36,65.60
2010,05,02,02,37,65.60
2010,05,02,02,38,65.60
2010,05,02,02,39,65.60
2010,05,02,02,40,65.60
2010,05,02,02,41,65.60
2010,05,02,02,42,65.60
2010,05,02,02,43,65.60
2010,05,02,02,44,65.60
2010,05,02,02,45,59.60
2010,05,02,02,46,59.60
2010,05,02,02,47,59.60
2010,05,02,02,48,59.60
2010,05,02,02,49,59.60
2010,05,02,02,50,59.60
2010,05,02,02,51,59.60
2010,05,02,02,52,59.60
2010,05,02,02,53,59.60
2010,05,02,02,54,59.60
2010,05,02,02,55,59.60
2010,05,02,02,56,59.60
2010,05,02,02,57,59.60
2010,05,02,02,58,59.60
2010,05,02,02,59,59.60
2010,05,02,03,00,62.60
2010,05,02,03,01,62.60
2010,05,02,03,02,62.60
2010,05,02,03,03,62.60
2010,05,02,03,04,62.60
2010,05,02,03,05,62.60
2010,05,02,03,06,62.60
2010,05,02,03,07,62.60
2010,05,02,03,08,62.60
2010,05,02,03,09,62.60
2010,05,02,03,10,62.60
2010,05,02,03,11,62.60
2010,05,02,03,12,62.60
2010,05,02,03,13,62.60
2010,05,02,03,14,62.60
2010,05,02,03,15,68.50
2010,05,02,03,16,68.50
2010,05,02,03,17,68.50
2010,05,02,03,18,68.50
2010,05,02,03,19,68.50
2010,05,02,03,20,68.50
2010,05,02,03,21,68.50
2010,05,02,03,22,68.50
2010,05,02,03,23,68.50
2010,05,02,03,24,68.50
2010,05,02,03,25,68.50
2010,05,02,03,26,68.50
2010,05,02,03,27,68.50
2010,05,02,03,28,68.50
2010,05,02,03,29,68.50
2010,05,02,03,30,47.60
2010,05,02,03,31,47.60
2010,05,02,03,32,47.60
2010,05,02,03,33,47.60
2010,05,02,03,34,47.60
2010,05,02,03,35,47.60
2010,05,02,03,36,47.60
2010,05,02,03,37,47.60
2010,05,02,03,38,47.60
2010,05,02,03,39,47.60
2010,05,02,03,40,47.60
2010,05,02,03,41,47.60
2010,05,02,03,42,47.60
2010,05,02,03,43,47.60
2010,05,02,03,44,47.60
2010,05,02,03,45,53.70
2010,05,02,03,46,53.70
2010,05,02,03,47,53.70
2010,05,02,03,48,53.70
2010,05,02,03,49,53.70
2010,05,02,03,50,53.70
2010,05,02,03,51,53.70
2010,05,02,03,52,53.70
2010,05,02,03,53,53.70
2010,05,02,03,54,53.70
2010,05,02,03,55,53.70
2010,05,02,03,56,53.70
2010,05,02,03,57,53.70
2010,05,02,03,58,53.70
2010,05,02,03,59,53.70
2010,05,02,04,00,35.70
2010,05,02,04,01,35.70
2010,05,02,04,02,35.70
2010,05,02,04,03,35.70
2010,05,02,04,04,35.70
2010,05,02,04,05,35.70
2010,05,02,04,06,35.70
2010,05,02,04,07,35.70
2010,05,02,04,08,35.70
2010,05,02,04,09,35.70
2010,05,02,04,10,35.70
2010,05,02,04,11,35.70
2010,05,02,04,12,35.70
2010,05,02,04,13,35.70
2010,05,02,04,14,35.70
2010,05,02,04,15,53.70
2010,05,02,04,16,53.70
2010,05,02,04,17,53.70
2010,05,02,04,18,53.70
2010,05,02,04,19,53.70
2010,05,02,04,20,53.70
2010,05,02,04,21,53.70
2010,05,02,04,22,53.70
2010,05,02,04,23,53.70
2010,05,02,04,24,53.70
2010,05,02,04,25,53.70
2010,05,02,04,26,53.70
2010,05,02,04,27,53.70
2010,05,02,04,28,53.70
2010,05,02,04,29,53.70
2010,05,02,04,30,59.60
2010,05,02,04,31,59.60
2010,05,02,04,32,59.60
2010,05,02,04,33,59.60
2010,05,02,04,34,59.60
2010,05,02,04,35,59.60
2010,05,02,04,36,59.60
2010,05,02,04,37,59.60
2010,05,02,04,38,59.60
2010,05,02,04,39,59.60
2010,05,02,04,40,59.60
2010,05,02,04,41,59.60
2010,05,02,04,42,59.60
2010,05,02,04,43,59.60
2010,05,02,04,44,59.60
2010,05,02,04,45,47.60
2010,05,02,04,46,47.60
2010,05,02,04,47,47.60
2010,05,02,04,48,47.60
2010,05,02,04,49,47.60
2010,05,02,04,50,47.60
2010,05,02,04,51,47.60
2010,05,02,04,52,47.60
2010,05,02,04,53,47.60
2010,05,02,04,54,47.60
2010,05,02,04,55,47.60
2010,05,02,04,56,47.60
2010,05,02,04,57,47.60
2010,05,02,04,58,47.60
2010,05,02,04,59,47.60
2010,05,02,05,00,38.70
2010,05,02,05,01,38.70
2010,05,02,05,02,38.70
2010,05,02,05,03,38.70
2010,05,02,05,04,38.70
2010,05,02,05,05,38.70
2010,05,02,05,06,38.70
2010,05,02,05,07,38.70
2010,05,02,05,08,38.70
2010,05,02,05,09,38.70
2010,05,02,05,10,38.70
2010,05,02,05,11,38.70
2010,05,02,05,12,38.70
2010,05,02,05,13,38.70
2010,05,02,05,14,38.70
2010,05,02,05,15,56.70
2010,05,02,05,16,56.70
2010,05,02,05,17,56.70
2010,05,02,05,18,56.70
2010,05,02,05,19,56.70
2010,05,02,05,20,56.70
2010,05,02,05,21,56.70
2010,05,02,05,22,56.70
2010,05,02,05,23,56.70
2010,05,02,05,24,56.70
2010,05,02,05,25,56.70
2010,05,02,05,26,56.70
2010,05,02,05,27,56.70
2010,05,02,05,28,56.70
2010,05,02,05,29,56.70
2010,05,02,05,30,53.70
2010,05,02,05,31,53.70
2010,05,02,05,32,53.70
2010,05,02,05,33,53.70
2010,05,02,05,34,53.70
2010,05,02,05,35,53.70
2010,05,02,05,36,53.70
2010,05,02,05,37,53.70
2010,05,02,05,38,53.70
2010,05,02,05,39,53.70
2010,05,02,05,40,53.70
2010,05,02,05,41,53.70
2010,05,02,05,42,53.70
2010,05,02,05,43,53.70
2010,05,02,05,44,53.70
2010,05,02,05,45,44.60
2010,05,02,05,46,44.60
2010,05,02,05,47,44.60
2010,05,02,05,48,44.60
2010,05,02,05,49,44.60
2010,05,02,05,50,44.60
2010,05,02,05,51,44.60
2010,05,02,05,52,44.60
2010,05,02,05,53,44.60
2010,05,02,05,54,44.60
2010,05,02,05,55,44.60
2010,05,02,05,56,44.60
2010,05,02,05,57,44.60
2010,05,02,05,58,44.60
2010,05,02,05,59,44.60
2010,05,02,06,00,35.70
2010,05,02,06,01,35.70
2010,05,02,06,02,35.70
2010,05,02,06,03,35.70
2010,05,02,06,04,35.70
2010,05,02,06,05,35.70
2010,05,02,06,06,35.70
2010,05,02,06,07,35.70
2010,05,02,06,08,35.70
2010,05,02,06,09,35.70
2010,05,02,06,10,35.70
2010,05,02,06,11,35.70
2010,05,02,06,12,35.70
2010,05,02,06,13,35.70
2010,05,02,06,14,35.70
2010,05,02,06,15,47.60
2010,05,02,06,16,47.60
2010,05,02,06,17,47.60
2010,05,02,06,18,47.60
2010,05,02,06,19,47.60
2010,05,02,06,20,47.60
2010,05,02,06,21,47.60
2010,05,02,06,22,47.60
2010,05,02,06,23,47.60
2010,05,02,06,24,47.60
2010,05,02,06,25,47.60
2010,05,02,06,26,47.60
2010,05,02,06,27,47.60
2010,05,02,06,28,47.60
2010,05,02,06,29,47.60
2010,05,02,06,30,56.70
2010,05,02,06,31,56.70
2010,05,02,06,32,56.70
2010,05,02,06,33,56.70
2010,05,02,06,34,56.70
2010,05,02,06,35,56.70
2010,05,02,06,36,56.70
2010,05,02,06,37,56.70
2010,05,02,06,38,56.70
2010,05,02,06,39,56.70
2010,05,02,06,40,56.70
2010,05,02,06,41,56.70
2010,05,02,06,42,56.70
2010,05,02,06,43,56.70
2010,05,02,06,44,56.70
2010,05,02,06,45,62.60
2010,05,02,06,46,62.60
2010,05,02,06,47,62.60
2010,05,02,06,48,62.60
2010,05,02,06,49,62.60
2010,05,02,06,50,62.60
2010,05,02,06,51,62.60
2010,05,02,06,52,62.60
2010,05,02,06,53,62.60
2010,05,02,06,54,62.60
2010,05,02,06,55,62.60
2010,05,02,06,56,62.60
2010,05,02,06,57,62.60
2010,05,02,06,58,62.60
2010,05,02,06,59,62.60
2010,05,02,07,00,35.70
2010,05,02,07,01,35.70
2010,05,02,07,02,35.70
2010,05,02,07,03,35.70
2010,05,02,07,04,35.70
2010,05,02,07,05,35.70
2010,05,02,07,06,35.70
2010,05,02,07,07,35.70
2010,05,02,07,08,35.70
2010,05,02,07,09,35.70
2010,05,02,07,10,35.70
2010,05,02,07,11,35.70
2010,05,02,07,12,35.70
2010,05,02,07,13,35.70
2010,05,02,07,14,35.70
2010,05,02,07,15,32.80
2010,05,02,07,16,32.80
2010,05,02,07,17,32.80
2010,05,02,07,18,32.80
2010,05,02,07,19,32.80
2010,05,02,07,20,32.80
2010,05,02,07,21,32.80
2010,05,02,07,22,32.80
2010,05,02,07,23,32.80
2010,05,02,07,24,32.80
2010,05,02,07,25,32.80
2010,05,02,07,26,32.80
2010,05,02,07,27,32.80
2010,05,02,07,28,32.80
2010,05,02,07,29,32.80
2010,05,02,07,30,32.80
2010,05,02,07,31,32.80
2010,05,02,07,32,32.80
2010,05,02,07,33,32.80
2010,05,02,07,34,32.80
2010,05,02,07,35,32.80
2010,05,02,07,36,32.80
2010,05,02,07,37,32.80
2010,05,02,07,38,32.80
2010,05,02,07,39,32.80
2010,05,02,07,40,32.80
2010,05,02,07,41,32.80
2010,05,02,07,42,32.80
2010,05,02,07,43,32.80
2010,05,02,07,44,32.80
2010,05,02,07,45,29.80
2010,05,02,07,46,29.80
2010,05,02,07,47,29.80
2010,05,02,07,48,29.80
2010,05,02,07,49,29.80
2010,05,02,07,50,29.80
2010,05,02,07,51,29.80
2010,05,02,07,52,29.80
2010,05,02,07,53,29.80
2010,05,02,07,54,29.80
2010,05,02,07,55,29.80
2010,05,02,07,56,29.80
2010,05,02,07,57,29.80
2010,05,02,07,58,29.80
2010,05,02,07,59,29.80
2010,05,02,08,00,56.70
2010,05,02,08,01,56.70
2010,05,02,08,02,56.70
2010,05,02,08,03,56.70
2010,05,02,08,04,56.70
2010,05,02,08,05,56.70
2010,05,02,08,06,56.70
2010,05,02,08,07,56.70
2010,05,02,08,08,56.70
2010,05,02,08,09,56.70
2010,05,02,08,10,56.70
2010,05,02,08,11,56.70
2010,05,02,08,12,56.70
2010,05,02,08,13,56.70
2010,05,02,08,14,56.70
2010,05,02,08,15,71.50
2010,05,02,08,16,71.50
2010,05,02,08,17,71.50
2010,05,02,08,18,71.50
2010,05,02,08,19,71.50
2010,05,02,08,20,71.50
2010,05,02,08,21,71.50
2010,05,02,08,22,71.50
2010,05,02,08,23,71.50
2010,05,02,08,24,71.50
2010,05,02,08,25,71.50
2010,05,02,08,26,71.50
2010,05,02,08,27,71.50
2010,05,02,08,28,71.50
2010,05,02,08,29,71.50
2010,05,02,08,30,53.70
2010,05,02,08,31,53.70
2010,05,02,08,32,53.70
2010,05,02,08,33,53.70
2010,05,02,08,34,53.70
2010,05,02,08,35,53.70
2010,05,02,08,36,53.70
2010,05,02,08,37,53.70
2010,05,02,08,38,53.70
2010,05,02,08,39,53.70
2010,05,02,08,40,53.70
2010,05,02,08,41,53.70
2010,05,02,08,42,53.70
2010,05,02,08,43,53.70
2010,05,02,08,44,53.70
2010,05,02,08,45,47.60
2010,05,02,08,46,47.60
2010,05,02,08,47,47.60
2010,05,02,08,48,47.60
2010,05,02,08,49,47.60
2010,05,02,08,50,47.60
2010,05,02,08,51,47.60
2010,05,02,08,52,47.60
2010,05,02,08,53,47.60
2010,05,02,08,54,47.60
2010,05,02,08,55,47.60
2010,05,02,08,56,47.60
2010,05,02,08,57,47.60
2010,05,02,08,58,47.60
2010,05,02,08,59,47.60
2010,05,02,09,00,53.70
2010,05,02,09,01,53.70
2010,05,02,09,02,53.70
2010,05,02,09,03,53.70
2010,05,02,09,04,53.70
2010,05,02,09,05,53.70
2010,05,02,09,06,53.70
2010,05,02,09,07,53.70
2010,05,02,09,08,53.70
2010,05,02,09,09,53.70
2010,05,02,09,10,53.70
2010,05,02,09,11,53.70
2010,05,02,09,12,53.70
2010,05,02,09,13,53.70
2010,05,02,09,14,53.70
2010,05,02,09,15,59.60
2010,05,02,09,16,59.60
2010,05,02,09,17,59.60
2010,05,02,09,18,59.60
2010,05,02,09,19,59.60
2010,05,02,09,20,59.60
2010,05,02,09,21,59.60
2010,05,02,09,22,59.60
2010,05,02,09,23,59.60
2010,05,02,09,24,59.60
2010,05,02,09,25,59.60
2010,05,02,09,26,59.60
2010,05,02,09,27,59.60
2010,05,02,09,28,59.60
2010,05,02,09,29,59.60
2010,05,02,09,30,53.70
2010,05,02,09,31,53.70
2010,05,02,09,32,53.70
2010,05,02,09,33,53.70
2010,05,02,09,34,53.70
2010,05,02,09,35,53.70
2010,05,02,09,36,53.70
2010,05,02,09,37,53.70
2010,05,02,09,38,53.70
2010,05,02,09,39,53.70
2010,05,02,09,40,53.70
2010,05,02,09,41,53.70
2010,05,02,09,42,53.70
2010,05,02,09,43,53.70
2010,05,02,09,44,53.70
2010,05,02,09,45,56.70
2010,05,02,09,46,56.70
2010,05,02,09,47,56.70
2010,05,02,09,48,56.70
2010,05,02,09,49,56.70
2010,05,02,09,50,56.70
2010,05,02,09,51,56.70
2010,05,02,09,52,56.70
2010,05,02,09,53,56.70
2010,05,02,09,54,56.70
2010,05,02,09,55,56.70
2010,05,02,09,56,56.70
2010,05,02,09,57,56.70
2010,05,02,09,58,56.70
2010,05,02,09,59,56.70
2010,05,02,10,00,41.70
2010,05,02,10,01,41.70
2010,05,02,10,02,41.70
2010,05,02,10,03,41.70
2010,05,02,10,04,41.70
2010,05,02,10,05,41.70
2010,05,02,10,06,41.70
2010,05,02,10,07,41.70
2010,05,02,10,08,41.70
2010,05,02,10,09,41.70
2010,05,02,10,10,41.70
2010,05,02,10,11,41.70
2010,05,02,10,12,41.70
2010,05,02,10,13,41.70
2010,05,02,10,14,41.70
2010,05,02,10,15,38.70
2010,05,02,10,16,38.70
2010,05,02,10,17,38.70
2010,05,02,10,18,38.70
2010,05,02,10,19,38.70
2010,05,02,10,20,38.70
2010,05,02,10,21,38.70
2010,05,02,10,22,38.70
2010,05,02,10,23,38.70
2010,05,02,10,24,38.70
2010,05,02,10,25,38.70
2010,05,02,10,26,38.70
2010,05,02,10,27,38.70
2010,05,02,10,28,38.70
2010,05,02,10,29,38.70
2010,05,02,10,30,38.70
2010,05,02,10,31,38.70
2010,05,02,10,32,38.70
2010,05,02,10,33,38.70
2010,05,02,10,34,38.70
2010,05,02,10,35,38.70
2010,05,02,10,36,38.70
2010,05,02,10,37,38.70
2010,05,02,10,38,38.70
2010,05,02,10,39,38.70
2010,05,02,10,40,38.70
2010,05,02,10,41,38.70
2010,05,02,10,42,38.70
2010,05,02,10,43,38.70
2010,05,02,10,44,38.70
2010,05,02,10,45,32.80
2010,05,02,10,46,32.80
2010,05,02,10,47,32.80
2010,05,02,10,48,32.80
2010,05,02,10,49,32.80
2010,05,02,10,50,32.80
2010,05,02,10,51,32.80
2010,05,02,10,52,32.80
2010,05,02,10,53,32.80
2010,05,02,10,54,32.80
2010,05,02,10,55,32.80
2010,05,02,10,56,32.80
2010,05,02,10,57,32.80
2010,05,02,10,58,32.80
2010,05,02,10,59,32.80
2010,05,02,11,00,41.70
2010,05,02,11,01,41.70
2010,05,02,11,02,41.70
2010,05,02,11,03,41.70
2010,05,02,11,04,41.70
2010,05,02,11,05,41.70
2010,05,02,11,06,41.70
2010,05,02,11,07,41.70
2010,05,02,11,08,41.70
2010,05,02,11,09,41.70
2010,05,02,11,10,41.70
2010,05,02,11,11,41.70
2010,05,02,11,12,41.70
2010,05,02,11,13,41.70
2010,05,02,11,14,41.70
2010,05,02,11,15,26.90
2010,05,02,11,16,26.90
2010,05,02,11,17,26.90
2010,05,02,11,18,26.90
2010,05,02,11,19,26.90
2010,05,02,11,20,26.90
2010,05,02,11,21,26.90
2010,05,02,11,22,26.90
2010,05,02,11,23,26.90
2010,05,02,11,24,26.90
2010,05,02,11,25,26.90
2010,05,02,11,26,26.90
2010,05,02,11,27,26.90
2010,05,02,11,28,26.90
2010,05,02,11,29,26.90
2010,05,02,11,30,35.70
2010,05,02,11,31,35.70
2010,05,02,11,32,35.70
2010,05,02,11,33,35.70
2010,05,02,11,34,35.70
2010,05,02,11,35,35.70
2010,05,02,11,36,35.70
2010,05,02,11,37,35.70
2010,05,02,11,38,35.70
2010,05,02,11,39,35.70
2010,05,02,11,40,35.70
2010,05,02,11,41,35.70
2010,05,02,11,42,35.70
2010,05,02,11,43,35.70
2010,05,02,11,44,35.70
2010,05,02,11,45,32.80
2010,05,02,11,46,32.80
2010,05,02,11,47,32.80
2010,05,02,11,48,32.80
2010,05,02,11,49,32.80
2010,05,02,11,50,32.80
2010,05,02,11,51,32.80
2010,05,02,11,52,32.80
2010,05,02,11,53,32.80
2010,05,02,11,54,32.80
2010,05,02,11,55,32.80
2010,05,02,11,56,32.80
2010,05,02,11,57,32.80
2010,05,02,11,58,32.80
2010,05,02,11,59,32.80
2010,05,02,12,00,32.80
2010,05,02,12,01,32.80
2010,05,02,12,02,32.80
2010,05,02,12,03,32.80
2010,05,02,12,04,32.80
2010,05,02,12,05,32.80
2010,05,02,12,06,32.80
2010,05,02,12,07,32.80
2010,05,02,12,08,32.80
2010,05,02,12,09,32.80
2010,05,02,12,10,32.80
2010,05,02,12,11,32.80
2010,05,02,12,12,32.80
2010,05,02,12,13,32.80
2010,05,02,12,14,32.80
2010,05,02,12,15,35.70
2010,05,02,12,16,35.70
2010,05,02,12,17,35.70
2010,05,02,12,18,35.70
2010,05,02,12,19,35.70
2010,05,02,12,20,35.70
2010,05,02,12,21,35.70
2010,05,02,12,22,35.70
2010,05,02,12,23,35.70
2010,05,02,12,24,35.70
2010,05,02,12,25,35.70
2010,05,02,12,26,35.70
2010,05,02,12,27,35.70
2010,05,02,12,28,35.70
2010,05,02,12,29,35.70
2010,05,02,12,30,47.60
2010,05,02,12,31,47.60
2010,05,02,12,32,47.60
2010,05,02,12,33,47.60
2010,05,02,12,34,47.60
2010,05,02,12,35,47.60
2010,05,02,12,36,47.60
2010,05,02,12,37,47.60
2010,05,02,12,38,47.60
2010,05,02,12,39,47.60
2010,05,02,12,40,47.60
2010,05,02,12,41,47.60
2010,05,02,12,42,47.60
2010,05,02,12,43,47.60
2010,05,02,12,44,47.60
2010,05,02,12,45,44.60
2010,05,02,12,46,44.60
2010,05,02,12,47,44.60
2010,05,02,12,48,44.60
2010,05,02,12,49,44.60
2010,05,02,12,50,44.60
2010,05,02,12,51,44.60
2010,05,02,12,52,44.60
2010,05,02,12,53,44.60
2010,05,02,12,54,44.60
2010,05,02,12,55,44.60
2010,05,02,12,56,44.60
2010,05,02,12,57,44.60
2010,05,02,12,58,44.60
2010,05,02,12,59,44.60
2010,05,02,13,00,32.80
2010,05,02,13,01,32.80
2010,05,02,13,02,32.80
2010,05,02,13,03,32.80
2010,05,02,13,04,32.80
2010,05,02,13,05,32.80
2010,05,02,13,06,32.80
2010,05,02,13,07,32.80
2010,05,02,13,08,32.80
2010,05,02,13,09,32.80
2010,05,02,13,10,32.80
2010,05,02,13,11,32.80
2010,05,02,13,12,32.80
2010,05,02,13,13,32.80
2010,05,02,13,14,32.80
2010,05,02,13,15,35.70
2010,05,02,13,16,35.70
2010,05,02,13,17,35.70
2010,05,02,13,18,35.70
2010,05,02,13,19,35.70
2010,05,02,13,20,35.70
2010,05,02,13,21,35.70
2010,05,02,13,22,35.70
2010,05,02,13,23,35.70
2010,05,02,13,24,35.70
2010,05,02,13,25,35.70
2010,05,02,13,26,35.70
2010,05,02,13,27,35.70
2010,05,02,13,28,35.70
2010,05,02,13,29,35.70
2010,05,02,13,30,41.70
2010,05,02,13,31,41.70
2010,05,02,13,32,41.70
2010,05,02,13,33,41.70
2010,05,02,13,34,41.70
2010,05,02,13,35,41.70
2010,05,02,13,36,41.70
2010,05,02,13,37,41.70
2010,05,02,13,38,41.70
2010,05,02,13,39,41.70
2010,05,02,13,40,41.70
2010,05,02,13,41,41.70
2010,05,02,13,42,41.70
2010,05,02,13,43,41.70
2010,05,02,13,44,41.70
2010,05,02,13,45,41.70
2010,05,02,13,46,41.70
2010,05,02,13,47,41.70
2010,05,02,13,48,41.70
2010,05,02,13,49,41.70
2010,05,02,13,50,41.70
2010,05,02,13,51,41.70
2010,05,02,13,52,41.70
2010,05,02,13,53,41.70
2010,05,02,13,54,41.70
2010,05,02,13,55,41.70
2010,05,02,13,56,41.70
2010,05,02,13,57,41.70
2010,05,02,13,58,41.70
2010,05,02,13,59,41.70
2010,05,02,14,00,35.70
2010,05,02,14,01,35.70
2010,05,02,14,02,35.70
2010,05,02,14,03,35.70
2010,05,02,14,04,35.70
2010,05,02,14,05,35.70
2010,05,02,14,06,35.70
2010,05,02,14,07,35.70
2010,05,02,14,08,35.70
2010,05,02,14,09,35.70
2010,05,02,14,10,35.70
2010,05,02,14,11,35.70
2010,05,02,14,12,35.70
2010,05,02,14,13,35.70
2010,05,02,14,14,35.70
2010,05,02,14,15,29.80
2010,05,02,14,16,29.80
2010,05,02,14,17,29.80
2010,05,02,14,18,29.80
2010,05,02,14,19,29.80
2010,05,02,14,20,29.80
2010,05,02,14,21,29.80
2010,05,02,14,22,29.80
2010,05,02,14,23,29.80
2010,05,02,14,24,29.80
2010,05,02,14,25,29.80
2010,05,02,14,26,29.80
2010,05,02,14,27,29.80
2010,05,02,14,28,29.80
2010,05,02,14,29,29.80
2010,05,02,14,30,41.70
2010,05,02,14,31,41.70
2010,05,02,14,32,41.70
2010,05,02,14,33,41.70
2010,05,02,14,34,41.70
2010,05,02,14,35,41.70
2010,05,02,14,36,41.70
2010,05,02,14,37,41.70
2010,05,02,14,38,41.70
2010,05,02,14,39,41.70
2010,05,02,14,40,41.70
2010,05,02,14,41,41.70
2010,05,02,14,42,41.70
2010,05,02,14,43,41.70
2010,05,02,14,44,41.70
2010,05,02,14,45,41.70
2010,05,02,14,46,41.70
2010,05,02,14,47,41.70
2010,05,02,14,48,41.70
2010,05,02,14,49,41.70
2010,05,02,14,50,41.70
2010,05,02,14,51,41.70
2010,05,02,14,52,41.70
2010,05,02,14,53,41.70
2010,05,02,14,54,41.70
2010,05,02,14,55,41.70
2010,05,02,14,56,41.70
2010,05,02,14,57,41.70
2010,05,02,14,58,41.70
2010,05,02,14,59,41.70
2010,05,02,15,00,38.70
2010,05,02,15,01,38.70
2010,05,02,15,02,38.70
2010,05,02,15,03,38.70
2010,05,02,15,04,38.70
2010,05,02,15,05,38.70
2010,05,02,15,06,38.70
2010,05,02,15,07,38.70
2010,05,02,15,08,38.70
2010,05,02,15,09,38.70
2010,05,02,15,10,38.70
2010,05,02,15,11,38.70
2010,05,02,15,12,38.70
2010,05,02,15,13,38.70
2010,05,02,15,14,38.70
2010,05,02,15,15,47.60
2010,05,02,15,16,47.60
2010,05,02,15,17,47.60
2010,05,02,15,18,47.60
2010,05,02,15,19,47.60
2010,05,02,15,20,47.60
2010,05,02,15,21,47.60
2010,05,02,15,22,47.60
2010,05,02,15,23,47.60
2010,05,02,15,24,47.60
2010,05,02,15,25,47.60
2010,05,02,15,26,47.60
2010,05,02,15,27,47.60
2010,05,02,15,28,47.60
2010,05,02,15,29,47.60
2010,05,02,15,30,35.70
2010,05,02,15,31,35.70
2010,05,02,15,32,35.70
2010,05,02,15,33,35.70
2010,05,02,15,34,35.70
2010,05,02,15,35,35.70
2010,05,02,15,36,35.70
2010,05,02,15,37,35.70
2010,05,02,15,38,35.70
2010,05,02,15,39,35.70
2010,05,02,15,40,35.70
2010,05,02,15,41,35.70
2010,05,02,15,42,35.70
2010,05,02,15,43,35.70
2010,05,02,15,44,35.70
2010,05,02,15,45,38.70
2010,05,02,15,46,38.70
2010,05,02,15,47,38.70
2010,05,02,15,48,38.70
2010,05,02,15,49,38.70
2010,05,02,15,50,38.70
2010,05,02,15,51,38.70
2010,05,02,15,52,38.70
2010,05,02,15,53,38.70
2010,05,02,15,54,38.70
2010,05,02,15,55,38.70
2010,05,02,15,56,38.70
2010,05,02,15,57,38.70
2010,05,02,15,58,38.70
2010,05,02,15,59,38.70
2010,05,02,16,00,35.70
2010,05,02,16,01,35.70
2010,05,02,16,02,35.70
2010,05,02,16,03,35.70
2010,05,02,16,04,35.70
2010,05,02,16,05,35.70
2010,05,02,16,06,35.70
2010,05,02,16,07,35.70
2010,05,02,16,08,35.70
2010,05,02,16,09,35.70
2010,05,02,16,10,35.70
2010,05,02,16,11,35.70
2010,05,02,16,12,35.70
2010,05,02,16,13,35.70
2010,05,02,16,14,35.70
2010,05,02,16,15,41.70
2010,05,02,16,16,41.70
2010,05,02,16,17,41.70
2010,05,02,16,18,41.70
2010,05,02,16,19,41.70
2010,05,02,16,20,41.70
2010,05,02,16,21,41.70
2010,05,02,16,22,41.70
2010,05,02,16,23,41.70
2010,05,02,16,24,41.70
2010,05,02,16,25,41.70
2010,05,02,16,26,41.70
2010,05,02,16,27,41.70
2010,05,02,16,28,41.70
2010,05,02,16,29,41.70
2010,05,02,16,30,38.70
2010,05,02,16,31,38.70
2010,05,02,16,32,38.70
2010,05,02,16,33,38.70
2010,05,02,16,34,38.70
2010,05,02,16,35,38.70
2010,05,02,16,36,38.70
2010,05,02,16,37,38.70
2010,05,02,16,38,38.70
2010,05,02,16,39,38.70
2010,05,02,16,40,38.70
2010,05,02,16,41,38.70
2010,05,02,16,42,38.70
2010,05,02,16,43,38.70
2010,05,02,16,44,38.70
2010,05,02,16,45,26.90
2010,05,02,16,46,26.90
2010,05,02,16,47,26.90
2010,05,02,16,48,26.90
2010,05,02,16,49,26.90
2010,05,02,16,50,26.90
2010,05,02,16,51,26.90
2010,05,02,16,52,26.90
2010,05,02,16,53,26.90
2010,05,02,16,54,26.90
2010,05,02,16,55,26.90
2010,05,02,16,56,26.90
2010,05,02,16,57,26.90
2010,05,02,16,58,26.90
2010,05,02,16,59,26.90
2010,05,02,17,00,38.70
2010,05,02,17,01,38.70
2010,05,02,17,02,38.70
2010,05,02,17,03,38.70
2010,05,02,17,04,38.70
2010,05,02,17,05,38.70
2010,05,02,17,06,38.70
2010,05,02,17,07,38.70
2010,05,02,17,08,38.70
2010,05,02,17,09,38.70
2010,05,02,17,10,38.70
2010,05,02,17,11,38.70
2010,05,02,17,12,38.70
2010,05,02,17,13,38.70
2010,05,02,17,14,38.70
2010,05,02,17,15,29.80
2010,05,02,17,16,29.80
2010,05,02,17,17,29.80
2010,05,02,17,18,29.80
2010,05,02,17,19,29.80